Regional Weather Roundup
Issued by NWS

Home | Current Version | Previous Version | Text Only | Print | Product List | Glossary On
Versions: 1 2 3 4 5 6 7 8 9 10 11 12 13 14 15 16 17 18 19 20 21 22 23 24 25 26 27 28 29 30 31 32 33 34 35 36 37 38 39 40 41 42 43 44 45 46 47 48 49 50
000
ASUS43 KDTX 220601
RWRMI
MICHIGAN HOURLY REGIONAL WEATHER ROUNDUP
NATIONAL WEATHER SERVICE DETROIT/PONTIAC MI
200 AM EDT FRI AUG 22 2014

NOTE: "FAIR" INDICATES FEW OR NO CLOUDS BELOW 12,000 FEET WITH NO
SIGNIFICANT WEATHER AND/OR OBSTRUCTION TO VISIBILITY.

MIZ047>049-052>055-059>063-066>070-074>076-081>083-220700-
SOUTHEAST LOWER MICHIGAN

CITY           SKY/WX    TMP DP  RH WIND       PRES   REMARKS
ADRIAN         FAIR      70  68  93 NE3       29.99F
6HR MIN TEMP:  70; 6HR MAX TEMP:  77;

ALMA           CLOUDY    68  65  92 CALM      29.99F
ANN ARBOR      FOG       71  68  90 CALM      29.99S VSB 1/2
BAD AXE        FOG       55  55 100 CALM      30.01S VSB 3/4
6HR MIN TEMP:  55; 6HR MAX TEMP:  66;

CARO           CLOUDY    64  63  98 CALM      30.00S
DETROIT CITY   CLOUDY    71  67  87 N5        29.99S
6HR MIN TEMP:  71; 6HR MAX TEMP:  77; 6HR PCP:  1.57;

DETROIT        CLOUDY    73  70  90 N3        29.99S
6HR MIN TEMP:  72; 6HR MAX TEMP:  77; 6HR PCP:  0.01;

FLINT          MOCLDY    70  64  81 E3        30.00S
6HR MIN TEMP:  70; 6HR MAX TEMP:  78;

GROSSE ILE     MOCLDY    73  72  94 CALM      29.97S FOG
HILLSDALE      MOCLDY    72  72 100 CALM      29.99F FOG
6HR MIN TEMP:  68; 6HR MAX TEMP:  76;

HOWELL         CLOUDY    70  69  98 CALM      29.99F FOG
6HR MIN TEMP:  69; 6HR MAX TEMP:  73;


CITY           SKY/WX    TMP DP  RH WIND       PRES   REMARKS
JACKSON        CLOUDY    71  69  93 CALM      29.99F FOG
6HR MIN TEMP:  69; 6HR MAX TEMP:  74;

LAMBERTVILLE   MOCLDY    70  68  94 CALM      29.98F
LANSING        LGT RAIN  71  69  93 CALM      29.99F FOG
6HR MIN TEMP:  70; 6HR MAX TEMP:  76; 6HR PCP: TRACE;

LAPEER         CLOUDY    65  64  93 CALM      30.00F
MASON          FOG       68  67  98 CALM      29.99S VSB 1
MONROE         FAIR      72  70  94 CALM      29.97S
MT. CLEMENS    MOCLDY    68  63  86 N3        29.98F
6HR MIN TEMP:  67; 6HR MAX TEMP:  74;

PONTIAC        CLOUDY    68  64  87 E3        30.00S
6HR MIN TEMP:  68; 6HR MAX TEMP:  77; 6HR PCP: TRACE;

PORT HOPE        N/A     60  58  92 CALM      29.99S
6HR MIN TEMP:  59; 6HR MAX TEMP:  67;

PORT HURON     CLOUDY    66  64  94 CALM      29.99F
TRI CITIES     CLOUDY    69  65  86 SE3       30.00F
6HR MIN TEMP:  69; 6HR MAX TEMP:  74;

TROY           MOCLDY    68  65  91 CALM      30.02S
SAGINAW HB     CLOUDY    68  68 100 CALM      29.99F
$$
MIZ043>046-050>051-056>058-064>065-071>073-077>080-220700-
SOUTHWEST LOWER MICHIGAN

CITY           SKY/WX    TMP DP  RH WIND       PRES   REMARKS
BATTLE CREEK   CLOUDY    73  70  90 CALM      29.99F
6HR MIN TEMP:  72; 6HR MAX TEMP:  76;

BENTON HARBOR  FAIR      70  69  97 SE3       29.94F
6HR MIN TEMP:  69; 6HR MAX TEMP:  75;

BIG RAPIDS     CLOUDY    67  67 100 S3        29.99F
6HR MIN TEMP:  66; 6HR MAX TEMP:  72;

COLDWATER      MOCLDY    70  69  96 CALM      29.98F FOG
6HR MIN TEMP:  69; 6HR MAX TEMP:  77;

FREMONT        MOCLDY    69  69  99 E3        29.98F FOG
HOLLAND        CLOUDY    73  70  90 E3        29.97F FOG
6HR MIN TEMP:  71; 6HR MAX TEMP:  76;

GRAND RAPIDS   FAIR      70  70 100 NE3       29.98F FOG
6HR MIN TEMP:  70; 6HR MAX TEMP:  76;

IONIA          MOCLDY    68  67  96 E3        29.98F FOG
KALAMAZOO      CLOUDY    73  70  90 S3        29.97F
6HR MIN TEMP:  71; 6HR MAX TEMP:  77;

LUDINGTON      FOG       69  69  98 CALM      29.96F VSB 1
6HR MIN TEMP:  67; 6HR MAX TEMP:  74;

MARSHALL       CLOUDY    68  67  99 CALM      29.98F FOG
MOUNT PLEASANT CLOUDY    68  65  89 CALM      29.99F
6HR MIN TEMP:  68; 6HR MAX TEMP:  73;

MUSKEGON       CLOUDY    72  69  90 CALM      29.96F FOG
6HR MIN TEMP:  71; 6HR MAX TEMP:  73;

SOUTH HAVEN    FAIR      71  71 100 CALM      29.95F FOG
$$
MIZ016>042-220700-
NORTHERN LOWER MICHIGAN

CITY           SKY/WX    TMP DP  RH WIND       PRES   REMARKS
ALPENA         FOG       58  58 100 CALM      30.00F VSB 1/4
6HR MIN TEMP:  58; 6HR MAX TEMP:  66;

BEAVER ISLAND  CLOUDY    65  64  93 CALM      29.99S
6HR MIN TEMP:  61; 6HR MAX TEMP:  69;

BELLAIRE       CLOUDY    66  64  92 CALM      29.98S
6HR MIN TEMP:  64; 6HR MAX TEMP:  69;

CADILLAC       CLOUDY    68  66  94 CALM      30.00F
CHARLEVOIX     CLOUDY    67  65  93 SE5       30.01S
6HR MIN TEMP:  63; 6HR MAX TEMP:  68;

FRANKFORT      CLOUDY    68  64  88 CALM      29.96F
GAYLORD        CLOUDY    64  62  93 CALM      30.02R
6HR MIN TEMP:  63; 6HR MAX TEMP:  70;

GRAYLING       CLOUDY    69  67  93 SE6       30.01S
6HR MIN TEMP:  64; 6HR MAX TEMP:  74;

HARBOR SPRINGS CLOUDY    67  64  91 CALM      29.99S
HOUGHTON LAKE  CLOUDY    66  64  93 E5        30.01S
6HR MIN TEMP:  66; 6HR MAX TEMP:  73;

MANISTEE       CLOUDY    66  64  94 E3        29.97F
OSCODA         FOG       58  58 100 CALM      29.99F VSB 1/4
PELLSTON       FAIR      60  59  96 CALM      30.00R
6HR MIN TEMP:  58; 6HR MAX TEMP:  71;

ROGERS CITY    FAIR      59  59 100 CALM      30.01F FOG
TRAVERSE CITY  CLOUDY    68  64  87 S3        29.96S
6HR MIN TEMP:  67; 6HR MAX TEMP:  71;

$$
MIZ007>008-015-220700-
EASTERN UPPER MICHIGAN

CITY           SKY/WX    TMP DP  RH WIND       PRES   REMARKS
KINROSS        CLOUDY    59  59 100 CALM      30.00S VSB 1/2
6HR MIN TEMP:  59; 6HR MAX TEMP:  70;

MACKINAC ISLAN FAIR      60  60 100 CALM      30.00S
6HR MIN TEMP:  60; 6HR MAX TEMP:  66; 6HR PCP:  0.01;

NEWBERRY       FOG       56  56 100 CALM      29.99F VSB 1/2
S. S. MARIE    FAIR      62  60  93 CALM      29.99S
6HR MIN TEMP:  62; 6HR MAX TEMP:  69;

$$
MIZ004>006-011>014-085-220700-
CENTRAL UPPER MICHIGAN

CITY           SKY/WX    TMP DP  RH WIND       PRES   REMARKS
MANISTIQUE     CLOUDY    62  61  97 CALM      29.99S
ESCANABA       CLOUDY    64  61  88 NE3       29.98S
6HR MIN TEMP:  64; 6HR MAX TEMP:  66;

MENOMINEE      MOCLDY    66  61  82 E7        29.94F
6HR MIN TEMP:  66; 6HR MAX TEMP:  70;

SAWYER-GWINN   CLOUDY    65  61  86 S3        29.98F
$$
MIZ001>003-009>011-084-220700-
WESTERN UPPER MICHIGAN

CITY           SKY/WX    TMP DP  RH WIND       PRES   REMARKS
IRON MOUNTAIN  LGT RAIN  64  62  93 SE8       29.97R
6HR MIN TEMP:  64; 6HR MAX TEMP:  67; 6HR PCP:  0.12;

HOUGHTON       CLOUDY    57  55  93 NE5       29.96S
6HR MIN TEMP:  57; 6HR MAX TEMP:  58;

COPPER HARBOR    N/A     55  53  93 CALM      29.96S
6HR MIN TEMP:  54; 6HR MAX TEMP:  61;

IRONWOOD       CLOUDY    66  66 100 SE7       29.90S
6HR MIN TEMP:  66; 6HR MAX TEMP:  72;

$$

ABBREVIATIONS USED IN REMARKS
   TC - TEMPERATURE IN CELSIUS
  WCI - WIND CHILL INDEX
   HX - HEAT INDEX
  VSB - VISIBILITY




USA.gov is the U.S. government's official web portal to all federal, state and local government web resources and services.